Date String (YYYY-MM-DD hh:mm:ss) UTC,Instrument flags,Ambient pressure (hPa),Sample flow (lpm),Bypass flow (lpm),Sample temperature (°C),Ambient temperature (°C),ASC tube jacket temperature (°C),LED temperature (°C),Box temperature (°C),Sample RH (%),Span deviation,Mass concentration (μg/m³),Mass concentration (μg/m³),Mass concentration (μg/m³)
DateTimeUTC,F1_M11,P_M11,Q1_M11,Q2_M11,T1_M11,T2_M11,T3_M11,T4_M11,T5_M11,U1_M11,ZSPAN_M11,X0_M11,X2_M11,X1_M11
2022-12-31 21:00:00,,0813.5,4.99,0.00,25.5,24.1,00.0,34.3,27.3,11.3,0000.0,0014.04,0010.82,0010.39
2022-12-31 21:01:00,,0813.6,5.00,0.00,25.5,24.1,00.0,34.3,27.3,11.4,0000.0,0013.97,0010.79,0010.34
2022-12-31 21:02:00,,0813.6,5.01,0.00,25.5,24.1,00.0,34.3,27.3,11.6,0000.0,0013.92,0010.79,0010.35
2022-12-31 21:03:00,,0813.6,5.00,0.00,25.5,24.1,00.0,34.3,27.3,12.1,0000.0,0013.98,0010.80,0010.38
2022-12-31 21:04:00,,0813.5,5.00,0.00,25.5,24.1,00.0,34.3,27.3,11.6,0000.0,0014.06,0010.82,0010.41
2022-12-31 21:05:00,,0813.5,5.00,0.00,25.5,24.1,00.0,34.3,27.3,11.4,0000.0,0013.76,0010.78,0010.40
2022-12-31 21:06:00,,0813.5,5.00,0.00,25.5,24.1,00.0,34.3,27.3,11.4,0000.0,0013.52,0010.77,0010.41
2022-12-31 21:07:00,,0813.6,5.00,0.00,25.5,24.1,00.0,34.3,27.3,11.3,0000.0,0013.30,0010.75,0010.41
2022-12-31 21:08:00,,0813.6,5.01,0.00,25.5,24.1,00.0,34.3,27.3,11.2,0000.0,0013.00,0010.73,0010.43
2022-12-31 21:09:00,,0813.5,5.00,0.00,25.5,24.1,00.0,34.3,27.3,11.2,0000.0,0012.74,0010.70,0010.42
2022-12-31 21:10:00,,0813.5,5.00,0.00,25.5,24.1,00.0,34.3,27.3,11.0,0000.0,0013.27,0010.73,0010.46
2022-12-31 21:11:00,,0813.6,4.99,0.00,25.5,24.1,00.0,34.3,27.3,11.0,0000.0,0013.79,0010.78,0010.55
2022-12-31 21:12:00,,0813.6,5.00,0.00,25.5,24.1,00.0,34.3,27.2,11.0,0000.0,0013.76,0010.79,0010.59
2022-12-31 21:13:00,,0813.6,5.00,0.00,25.5,24.1,00.0,34.3,27.3,11.5,0000.0,0013.93,0010.82,0010.63
2022-12-31 21:14:00,,0813.5,5.01,0.00,25.5,24.1,00.0,34.3,27.2,11.7,0000.0,0014.29,0010.80,0010.62
2022-12-31 21:15:00,,0813.5,5.00,0.00,25.5,24.1,00.0,34.3,27.2,11.6,0000.0,0014.23,0010.85,0010.67
2022-12-31 21:16:00,,0813.5,5.00,0.00,25.5,24.1,00.0,34.3,27.2,11.4,0000.0,0014.38,0010.96,0010.75
2022-12-31 21:17:00,,0813.5,5.00,0.00,25.5,24.1,00.0,34.3,27.3,11.2,0000.0,0014.44,0011.00,0010.78
2022-12-31 21:18:00,,0813.4,5.00,0.00,25.5,24.2,00.0,34.3,27.3,11.2,0000.0,0014.29,0011.02,0010.80
2022-12-31 21:19:00,,0813.4,5.00,0.00,25.5,24.2,00.0,34.3,27.3,11.1,0000.0,0014.37,0011.02,0010.77
2022-12-31 21:20:00,,0813.4,5.00,0.00,25.5,24.2,00.0,34.3,27.2,11.2,0000.0,0014.39,0010.98,0010.71
2022-12-31 21:21:00,,0813.5,5.00,0.00,25.5,24.2,00.0,34.3,27.2,11.2,0000.0,0013.79,0010.92,0010.63
2022-12-31 21:22:00,,0813.3,5.00,0.00,25.5,24.2,00.0,34.3,27.3,11.5,0000.0,0013.55,0010.87,0010.54
2022-12-31 21:23:00,,0813.3,5.00,0.00,25.6,24.2,00.0,34.3,27.3,11.5,0000.0,0014.01,0010.82,0010.46
2022-12-31 21:24:00,,0813.3,5.00,0.00,25.6,24.2,00.0,34.4,27.3,11.4,0000.0,0013.77,0010.78,0010.44
2022-12-31 21:25:00,,0813.4,4.99,0.00,25.6,24.2,00.0,34.4,27.3,11.7,0000.0,0013.25,0010.66,0010.30
2022-12-31 21:26:00,,0813.4,5.00,0.00,25.6,24.3,00.0,34.4,27.3,11.5,0000.0,0013.14,0010.57,0010.21
2022-12-31 21:27:00,,0813.4,5.00,0.00,25.6,24.3,00.0,34.4,27.3,11.5,0000.0,0013.22,0010.57,0010.19
2022-12-31 21:28:00,,0813.5,5.00,0.00,25.6,24.3,00.0,34.4,27.4,11.8,0000.0,0013.46,0010.46,0010.09
2022-12-31 21:29:00,,0813.4,5.01,0.00,25.6,24.3,00.0,34.4,27.3,11.8,0000.0,0013.25,0010.25,0009.89
2022-12-31 21:30:00,,0813.4,5.01,0.00,25.6,24.3,00.0,34.4,27.3,11.5,0000.0,0013.11,0010.21,0009.86
2022-12-31 21:31:00,,0813.5,5.00,0.00,25.6,24.3,00.0,34.4,27.4,11.7,0000.0,0013.22,0010.25,0009.91
2022-12-31 21:32:00,,0813.4,5.00,0.00,25.6,24.4,00.0,34.4,27.4,11.8,0000.0,0013.34,0010.28,0009.93
2022-12-31 21:33:00,,0813.5,5.01,0.00,25.6,24.4,00.0,34.4,27.3,12.1,0000.0,0013.14,0010.33,0010.00
2022-12-31 21:34:00,,0813.5,5.00,0.00,25.7,24.4,00.0,34.4,27.4,13.4,0000.0,0012.89,0010.40,0010.07
2022-12-31 21:35:00,,0813.5,5.00,0.00,25.7,24.4,00.0,34.4,27.4,14.1,0000.0,0013.96,0010.45,0010.09
2022-12-31 21:36:00,,0813.6,5.00,0.00,25.7,24.4,00.0,34.4,27.4,14.3,0000.0,0014.25,0010.60,0010.23
2022-12-31 21:37:00,,0813.9,5.00,0.00,25.7,24.4,00.0,34.4,27.4,13.6,0000.0,0014.39,0010.68,0010.32
2022-12-31 21:38:00,,0814.0,4.99,0.00,25.7,24.5,00.0,34.4,27.5,12.6,0000.0,0014.93,0010.71,0010.35
2022-12-31 21:39:00,,0814.2,5.00,0.00,25.7,24.5,00.0,34.5,27.5,13.1,0000.0,0015.18,0010.92,0010.54
2022-12-31 21:40:00,,0814.3,5.00,0.00,25.7,24.5,00.0,34.5,27.5,13.7,0000.0,0015.50,0011.17,0010.78
2022-12-31 21:41:00,,0814.3,5.00,0.00,25.7,24.5,00.0,34.5,27.5,12.9,0000.0,0015.84,0011.29,0010.88
2022-12-31 21:42:00,,0814.2,5.00,0.00,25.8,24.6,00.0,34.5,27.6,12.7,0000.0,0016.02,0011.33,0010.93
2022-12-31 21:43:00,,0814.3,5.00,0.00,25.8,24.6,00.0,34.5,27.6,12.8,0000.0,0016.00,0011.41,0011.02
2022-12-31 21:44:00,,0814.3,5.01,0.00,25.8,24.6,00.0,34.5,27.6,12.5,0000.0,0016.19,0011.54,0011.12
2022-12-31 21:45:00,,0814.3,5.01,0.00,25.8,24.6,00.0,34.5,27.6,12.3,0000.0,0016.50,0011.69,0011.24
2022-12-31 21:46:00,,0814.1,5.01,0.00,25.8,24.6,00.0,34.5,27.6,12.3,0000.0,0015.87,0011.82,0011.37
2022-12-31 21:47:00,,0813.8,5.01,0.00,25.8,24.7,00.0,34.6,27.6,12.4,0000.0,0016.51,0012.00,0011.53
2022-12-31 21:48:00,,0813.9,5.00,0.00,25.9,24.7,00.0,34.6,27.6,12.5,0000.0,0017.00,0012.16,0011.68
2022-12-31 21:49:00,,0813.9,5.00,0.00,25.9,24.7,00.0,34.6,27.6,12.6,0000.0,0016.77,0012.27,0011.80
2022-12-31 21:50:00,,0813.9,5.00,0.00,25.9,24.7,00.0,34.6,27.7,12.5,0000.0,0016.70,0012.34,0011.87
2022-12-31 21:51:00,,0813.9,5.00,0.00,25.9,24.7,00.0,34.6,27.7,12.4,0000.0,0016.91,0012.45,0011.95
2022-12-31 21:52:00,,0813.9,5.00,0.00,25.9,24.7,00.0,34.6,27.7,12.3,0000.0,0016.81,0012.54,0012.02
2022-12-31 21:53:00,,0813.8,5.00,0.00,25.9,24.7,00.0,34.6,27.7,12.1,0000.0,0017.12,0012.69,0012.11
2022-12-31 21:54:00,,0814.0,4.99,0.00,25.9,24.7,00.0,34.6,27.7,12.0,0000.0,0017.37,0012.81,0012.19
2022-12-31 21:55:00,,0813.9,5.00,0.00,26.0,24.8,00.0,34.7,27.8,11.7,0000.0,0017.42,0012.86,0012.23
2022-12-31 21:56:00,,0813.9,5.00,0.00,26.0,24.8,00.0,34.7,27.7,11.7,0000.0,0017.21,0012.84,0012.21
2022-12-31 21:57:00,,0813.9,5.00,0.00,26.0,24.8,00.0,34.7,27.8,11.7,0000.0,0017.06,0012.80,0012.18
2022-12-31 21:58:00,,0813.9,5.00,0.00,26.0,24.8,00.0,34.7,27.8,11.7,0000.0,0017.33,0012.75,0012.10
2022-12-31 21:59:00,,0813.9,5.01,0.00,26.0,24.8,00.0,34.7,27.8,11.6,0000.0,0017.54,0012.67,0012.03
